Terminal Aerodrome Forecast
Issued by NWS Key West, FL

Home | Current Version | Previous Version | Text Only | Print | Product List | Glossary On
Versions: 1 2 3 4 5 6 7 8 9 10 11 12 13 14 15 16 17 18 19 20 21 22 23 24 25 26 27 28 29 30 31 32 33 34 35 36 37 38 39 40 41 42 43 44 45
000
FTUS42 KKEY 042331
TAFEYW
TAF
KEYW 042331Z 0500/0524 08014G22KT P6SM FEW030 BKN060
     FM050500 09012G19KT P6SM VCSH SCT025 BKN050
     FM051200 09011KT P6SM VCTS SCT020CB OVC050=

USA.gov is the U.S. government's official web portal to all federal, state and local government web resources and services.